QPF
0.10 0.08 0.09 0.08 0.07 0.07 0.07 0.07 0.05 0.04 0.03 0.03 0.03 0.05 0.05 0.03 0.03 0.04 0.05 0.05 0.04 0.03 0.02 0.02 0.02 0.02 0.02 0.03 0.02 0.02 0.02 0.02 0.03 0.02 0.03 0.03 0.03 0.04
0.05 0.05 0.07 0.07 0.06 0.06 0.08 0.08 0.07 0.05 0.03 0.02 0.02 0.02 0.02 0.02 0.02 0.04 0.05 0.05 0.04 0.04 0.03 0.02 0.02 0.01 0.01 0.01 0.01 0.01 0.01 0.02 0.02 0.01 0.01 0.02 0.02 0.02
0.03 0.03 0.05 0.07 0.06 0.06 0.06 0.06 0.06 0.06 0.04 0.02 0.02 0.02 0.02 0.01 0.01 0.02 0.03 0.03 0.03 0.03 0.02 0.02 0.02 0.02 0.01 0.01 0.01 0.01 0.01 0.02 0.02 0.01 0.01 0.02 0.02 0.02
0.03 0.02 0.02 0.03 0.04 0.04 0.04 0.04 0.05 0.05 0.04 0.02 0.03 0.03 0.03 0.02 0.02 0.02 0.02 0.03 0.02 0.02 0.01 0.01 0.02 0.02 0.02 0.02 0.02 0.02 0.01 0.01 0.01 0.01 0.01 0.01 0.02 0.02
0.02 0.03 0.03 0.04 0.05 0.04 0.04 0.04 0.05 0.04 0.04 0.03 0.02 0.03 0.02 0.03 0.04 0.03 0.03 0.02 0.02 0.02 0.02 0.01 0.02 0.02 0.02 0.02 0.02 0.02 0.02 0.03 0.01 0.01 0.01 0.01 0.02 0.02
0.02 0.02 0.03 0.05 0.06 0.06 0.04 0.04 0.03 0.03 0.03 0.03 0.02 0.02 0.02 0.02 0.03 0.02 0.02 0.02 0.03 0.03 0.03 0.02 0.02 0.02 0.02 0.03 0.03 0.02 0.02 0.03 0.03 0.02 0.02 0.02 0.02 0.03
0.02 0.02 0.03 0.03 0.04 0.05 0.04 0.03 0.02 0.02 0.02 0.02 0.02 0.02 0.01 0.02 0.02 0.02 0.02 0.02 0.03 0.04 0.03 0.03 0.02 0.01 0.02 0.04 0.04 0.04 0.03 0.03 0.03 0.03 0.03 0.02 0.03 0.03
0.02 0.02 0.02 0.02 0.03 0.03 0.03 0.03 0.02 0.02 0.01 0.01 0.01 0.01 0.01 0.01 0.02 0.03 0.03 0.03 0.02 0.02 0.04 0.04 0.03 0.02 0.02 0.02 0.04 0.04 0.03 0.02 0.02 0.03 0.04 0.04 0.04 0.04
0.03 0.03 0.03 0.02 0.02 0.03 0.03 0.02 0.02 0.01 0.01 0.01 0.01 0.01 0.01 0.02 0.02 0.03 0.03 0.03 0.02 0.03 0.04 0.05 0.03 0.03 0.03 0.03 0.03 0.04 0.03 0.02 0.02 0.02 0.02 0.03 0.03 0.03
0.04 0.03 0.03 0.03 0.02 0.02 0.01 0.01 0.01 0.00 0.00 0.01 0.01 0.00 0.01 0.01 0.02 0.03 0.04 0.05 0.04 0.03 0.04 0.04 0.03 0.03 0.02 0.02 0.02 0.03 0.03 0.02 0.02 0.02 0.02 0.03 0.04 0.04
0.06 0.04 0.03 0.02 0.01 0.01 0.00 0.00 0.00 0.00 0.00 0.00 0.01 0.01 0.00 0.01 0.01 0.02 0.03 0.04 0.05 0.05 0.05 0.05 0.05 0.05 0.03 0.02 0.02 0.02 0.02 0.02 0.02 0.02 0.03 0.03 0.04 0.05
0.04 0.02 0.02 0.01 0.00 0.00 0.00 0.00 0.00 0.00 0.00 0.00 0.00 0.00 0.01 0.01 0.01 0.01 0.02 0.03 0.03 0.03 0.03 0.04 0.06 0.06 0.04 0.03 0.02 0.02 0.02 0.01 0.02 0.02 0.02 0.02 0.04 0.05
0.03 0.02 0.01 0.00 0.00 0.00 0.00 0.00 0.00 0.00 0.00 0.00 0.00 0.00 0.00 0.01 0.01 0.01 0.02 0.02 0.02 0.02 0.03 0.04 0.05 0.06 0.05 0.03 0.02 0.03 0.03 0.02 0.02 0.02 0.02 0.02 0.03 0.04
0.02 0.01 0.01 0.01 0.01 0.01 0.00 0.00 0.00 0.00 0.00 0.00 0.00 0.00 0.00 0.00 0.01 0.01 0.02 0.03 0.03 0.04 0.05 0.06 0.07 0.05 0.04 0.03 0.03 0.03 0.03 0.04 0.03 0.03 0.02 0.03 0.03 0.04
0.01 0.01 0.01 0.01 0.01 0.01 0.01 0.01 0.00 0.00 0.00 0.00 0.00 0.00 0.00 0.00 0.01 0.01 0.02 0.03 0.05 0.06 0.07 0.08 0.07 0.05 0.05 0.04 0.03 0.03 0.04 0.04 0.04 0.04 0.03 0.03 0.03 0.02
0.01 0.01 0.01 0.01 0.01 0.01 0.01 0.01 0.00 0.00 0.00 0.00 0.00 0.00 0.00 0.00 0.01 0.02 0.02 0.03 0.04 0.06 0.07 0.07 0.07 0.06 0.05 0.05 0.05 0.06 0.07 0.08 0.08 0.05 0.04 0.03 0.02 0.02
0.01 0.01 0.02 0.01 0.01 0.01 0.01 0.01 0.01 0.01 0.01 0.00 0.00 0.00 0.01 0.01 0.01 0.02 0.04 0.05 0.04 0.05 0.05 0.05 0.07 0.08 0.08 0.06 0.05 0.04 0.03 0.04 0.05 0.05 0.04 0.04 0.03 0.02
0.01 0.01 0.01 0.01 0.01 0.01 0.01 0.01 0.01 0.01 0.01 0.01 0.01 0.01 0.01 0.02 0.03 0.03 0.03 0.05 0.06 0.06 0.05 0.05 0.07 0.09 0.11 0.08 0.06 0.05 0.05 0.04 0.05 0.06 0.05 0.05 0.03 0.02
0.01 0.01 0.01 0.01 0.01 0.01 0.01 0.01 0.01 0.01 0.01 0.01 0.01 0.01 0.01 0.02 0.02 0.02 0.03 0.03 0.05 0.05 0.05 0.05 0.05 0.07 0.08 0.07 0.06 0.04 0.04 0.04 0.05 0.06 0.06 0.05 0.04 0.03
0.02 0.01 0.02 0.01 0.01 0.01 0.01 0.01 0.01 0.02 0.02 0.02 0.01 0.01 0.02 0.02 0.02 0.02 0.03 0.04 0.05 0.05 0.07 0.07 0.05 0.05 0.06 0.06 0.06 0.05 0.04 0.05 0.06 0.07 0.07 0.06 0.06 0.04
0.03 0.02 0.02 0.02 0.02 0.01 0.01 0.01 0.02 0.02 0.02 0.01 0.01 0.02 0.02 0.02 0.03 0.03 0.03 0.04 0.04 0.05 0.06 0.07 0.08 0.08 0.07 0.06 0.06 0.06 0.05 0.05 0.06 0.07 0.07 0.07 0.06 0.05
0.07 0.06 0.04 0.03 0.02 0.01 0.01 0.02 0.02 0.02 0.01 0.01 0.02 0.02 0.03 0.03 0.04 0.04 0.04 0.03 0.03 0.04 0.05 0.05 0.06 0.07 0.08 0.08 0.07 0.06 0.06 0.06 0.06 0.08 0.08 0.08 0.08 0.06
0.05 0.07 0.07 0.06 0.04 0.03 0.02 0.02 0.02 0.03 0.03 0.03 0.03 0.03 0.03 0.04 0.06 0.06 0.06 0.05 0.04 0.04 0.04 0.04 0.05 0.05 0.05 0.06 0.07 0.07 0.06 0.05 0.05 0.05 0.06 0.08 0.10 0.07
MSLP
1009.30 1009.55 1009.80 1010.03 1010.19 1010.27 1010.25 1010.14 1009.97 1009.76 1009.55 1009.34 1009.16 1009.00 1008.85 1008.70 1008.53 1008.32 1008.09 1007.84 1007.61 1007.40 1007.23 1007.12 1007.06 1007.05 1007.05 1007.05 1007.02 1006.96 1006.85 1006.71 1006.56 1006.40 1006.27 1006.17 1006.12 1006.11
1008.14 1008.39 1008.66 1008.91 1009.11 1009.24 1009.30 1009.28 1009.22 1009.12 1009.01 1008.91 1008.82 1008.73 1008.65 1008.53 1008.38 1008.19 1007.97 1007.72 1007.47 1007.26 1007.09 1006.97 1006.92 1006.90 1006.90 1006.90 1006.87 1006.79 1006.67 1006.51 1006.32 1006.12 1005.94 1005.79 1005.68 1005.61
1006.85 1007.14 1007.45 1007.76 1008.03 1008.25 1008.41 1008.50 1008.55 1008.56 1008.56 1008.55 1008.53 1008.51 1008.46 1008.38 1008.24 1008.06 1007.83 1007.57 1007.31 1007.08 1006.89 1006.75 1006.67 1006.64 1006.62 1006.61 1006.57 1006.49 1006.37 1006.20 1006.01 1005.80 1005.60 1005.43 1005.28 1005.18
1005.45 1005.81 1006.21 1006.61 1007.00 1007.33 1007.61 1007.83 1007.99 1008.11 1008.20 1008.27 1008.31 1008.33 1008.32 1008.25 1008.12 1007.93 1007.69 1007.41 1007.13 1006.86 1006.64 1006.46 1006.33 1006.26 1006.20 1006.16 1006.10 1006.02 1005.90 1005.74 1005.57 1005.38 1005.19 1005.03 1004.88 1004.75
1004.02 1004.47 1004.98 1005.50 1006.02 1006.49 1006.91 1007.25 1007.53 1007.75 1007.92 1008.05 1008.15 1008.20 1008.19 1008.13 1008.00 1007.81 1007.55 1007.26 1006.94 1006.64 1006.35 1006.11 1005.92 1005.77 1005.66 1005.56 1005.47 1005.36 1005.24 1005.11 1004.96 1004.81 1004.67 1004.53 1004.41 1004.29
1002.65 1003.20 1003.82 1004.48 1005.13 1005.74 1006.29 1006.76 1007.15 1007.46 1007.70 1007.88 1008.00 1008.07 1008.08 1008.03 1007.90 1007.70 1007.44 1007.13 1006.79 1006.43 1006.09 1005.77 1005.49 1005.24 1005.04 1004.87 1004.71 1004.57 1004.45 1004.33 1004.21 1004.11 1004.02 1003.93 1003.84 1003.75
1001.48 1002.11 1002.82 1003.59 1004.37 1005.10 1005.77 1006.35 1006.82 1007.20 1007.49 1007.71 1007.86 1007.95 1007.97 1007.92 1007.81 1007.62 1007.37 1007.05 1006.68 1006.28 1005.87 1005.47 1005.09 1004.74 1004.42 1004.15 1003.92 1003.73 1003.57 1003.45 1003.36 1003.30 1003.25 1003.21 1003.17 1003.10
1000.66 1001.32 1002.10 1002.94 1003.79 1004.62 1005.37 1006.01 1006.55 1006.98 1007.31 1007.55 1007.71 1007.81 1007.85 1007.83 1007.74 1007.57 1007.33 1007.02 1006.64 1006.21 1005.74 1005.26 1004.77 1004.31 1003.89 1003.51 1003.18 1002.92 1002.72 1002.58 1002.49 1002.44 1002.42 1002.41 1002.40 1002.35
1000.30 1000.95 1001.73 1002.60 1003.48 1004.34 1005.12 1005.80 1006.36 1006.81 1007.15 1007.40 1007.57 1007.69 1007.74 1007.75 1007.68 1007.55 1007.34 1007.05 1006.67 1006.21 1005.70 1005.15 1004.58 1004.01 1003.47 1002.98 1002.56 1002.22 1001.95 1001.77 1001.65 1001.60 1001.58 1001.57 1001.56 1001.51
1000.47 1001.07 1001.81 1002.64 1003.50 1004.33 1005.09 1005.76 1006.30 1006.73 1007.06 1007.30 1007.47 1007.59 1007.66 1007.69 1007.66 1007.56 1007.38 1007.10 1006.73 1006.27 1005.73 1005.12 1004.48 1003.83 1003.20 1002.62 1002.10 1001.67 1001.34 1001.09 1000.92 1000.82 1000.77 1000.73 1000.69 1000.62
1001.16 1001.67 1002.33 1003.07 1003.85 1004.61 1005.30 1005.90 1006.39 1006.77 1007.06 1007.27 1007.43 1007.54 1007.62 1007.66 1007.65 1007.57 1007.42 1007.16 1006.80 1006.34 1005.78 1005.14 1004.45 1003.74 1003.04 1002.38 1001.79 1001.28 1000.87 1000.55 1000.31 1000.15 1000.03 999.93 999.83 999.71
1002.26 1002.67 1003.21 1003.84 1004.50 1005.15 1005.73 1006.24 1006.64 1006.95 1007.18 1007.35 1007.47 1007.56 1007.63 1007.66 1007.65 1007.58 1007.43 1007.18 1006.82 1006.35 1005.78 1005.13 1004.41 1003.67 1002.93 1002.22 1001.57 1001.00 1000.52 1000.12 999.81 999.56 999.36 999.18 999.00 998.81
1003.60 1003.90 1004.33 1004.83 1005.36 1005.87 1006.33 1006.72 1007.02 1007.24 1007.40 1007.51 1007.59 1007.64 1007.67 1007.68 1007.65 1007.56 1007.39 1007.12 1006.75 1006.27 1005.68 1005.02 1004.30 1003.54 1002.78 1002.05 1001.37 1000.75 1000.21 999.75 999.36 999.02 998.73 998.47 998.21 997.96
1004.99 1005.21 1005.52 1005.90 1006.29 1006.67 1007.00 1007.27 1007.47 1007.60 1007.69 1007.73 1007.75 1007.76 1007.74 1007.71 1007.63 1007.49 1007.27 1006.97 1006.56 1006.05 1005.46 1004.78 1004.05 1003.30 1002.54 1001.80 1001.10 1000.45 999.87 999.35 998.89 998.48 998.12 997.77 997.45 997.14
1006.25 1006.41 1006.63 1006.90 1007.18 1007.44 1007.65 1007.81 1007.92 1007.97 1007.99 1007.97 1007.94 1007.89 1007.82 1007.72 1007.58 1007.37 1007.09 1006.73 1006.27 1005.72 1005.09 1004.40 1003.67 1002.91 1002.16 1001.42 1000.72 1000.05 999.44 998.88 998.37 997.90 997.46 997.06 996.69 996.35
1007.27 1007.38 1007.55 1007.73 1007.91 1008.07 1008.19 1008.27 1008.30 1008.29 1008.26 1008.20 1008.13 1008.03 1007.90 1007.74 1007.52 1007.24 1006.87 1006.43 1005.90 1005.29 1004.62 1003.91 1003.16 1002.40 1001.65 1000.91 1000.20 999.53 998.89 998.30 997.74 997.22 996.74 996.31 995.91 995.56
1007.99 1008.08 1008.21 1008.33 1008.44 1008.53 1008.58 1008.60 1008.59 1008.55 1008.48 1008.40 1008.30 1008.16 1007.99 1007.76 1007.47 1007.10 1006.66 1006.13 1005.52 1004.85 1004.13 1003.37 1002.60 1001.83 1001.06 1000.32 999.59 998.90 998.24 997.61 997.01 996.46 995.95 995.49 995.09 994.76
1008.43 1008.52 1008.62 1008.71 1008.77 1008.81 1008.83 1008.81 1008.78 1008.73 1008.67 1008.58 1008.46 1008.31 1008.10 1007.82 1007.46 1007.02 1006.49 1005.88 1005.20 1004.46 1003.68 1002.88 1002.07 1001.26 1000.47 999.70 998.95 998.23 997.53 996.85 996.22 995.63 995.10 994.64 994.25 993.94
1008.70 1008.78 1008.86 1008.92 1008.96 1008.98 1008.97 1008.96 1008.93 1008.89 1008.84 1008.76 1008.65 1008.48 1008.25 1007.93 1007.52 1007.02 1006.42 1005.73 1004.98 1004.17 1003.34 1002.48 1001.63 1000.79 999.96 999.15 998.36 997.58 996.83 996.11 995.43 994.80 994.24 993.77 993.40 993.12
1008.87 1008.95 1009.02 1009.06 1009.09 1009.09 1009.09 1009.08 1009.07 1009.05 1009.03 1008.97 1008.87 1008.70 1008.45 1008.10 1007.65 1007.09 1006.44 1005.69 1004.88 1004.02 1003.13 1002.24 1001.34 1000.46 999.58 998.72 997.87 997.04 996.23 995.45 994.71 994.04 993.45 992.96 992.59 992.33
1009.03 1009.10 1009.15 1009.19 1009.21 1009.21 1009.22 1009.23 1009.25 1009.26 1009.26 1009.22 1009.13 1008.96 1008.70 1008.32 1007.84 1007.23 1006.53 1005.74 1004.88 1003.98 1003.06 1002.13 1001.20 1000.27 999.36 998.45 997.55 996.65 995.78 994.93 994.14 993.42 992.79 992.27 991.89 991.64
1009.19 1009.26 1009.30 1009.33 1009.35 1009.37 1009.39 1009.43 1009.47 1009.51 1009.53 1009.50 1009.41 1009.23 1008.95 1008.55 1008.02 1007.38 1006.64 1005.82 1004.93 1004.01 1003.06 1002.11 1001.16 1000.22 999.27 998.33 997.38 996.44 995.52 994.62 993.77 993.00 992.33 991.78 991.38 991.12
1009.35 1009.41 1009.45 1009.48 1009.50 1009.54 1009.59 1009.65 1009.71 1009.77 1009.80 1009.78 1009.68 1009.48 1009.16 1008.72 1008.16 1007.49 1006.71 1005.87 1004.96 1004.03 1003.09 1002.14 1001.19 1000.24 999.29 998.34 997.37 996.41 995.45 994.52 993.63 992.83 992.12 991.55 991.12 990.85
Thickness
5722 5721 5719 5717 5716 5714 5712 5710 5706 5703 5703 5707 5708 5710 5710 5710 5709 5709 5709 5709 5709 5708 5707 5706 5705 5705 5705 5704 5704 5704 5704 5704 5705 5705 5705 5705 5705 5705
5717 5715 5713 5713 5711 5710 5708 5707 5705 5702 5699 5702 5703 5704 5704 5705 5705 5705 5705 5705 5704 5704 5703 5702 5701 5701 5701 5700 5700 5700 5700 5700 5700 5700 5700 5701 5701 5701
5712 5710 5708 5707 5706 5704 5703 5702 5700 5698 5696 5697 5697 5699 5698 5698 5699 5699 5699 5699 5699 5699 5698 5697 5697 5696 5696 5696 5696 5696 5696 5695 5696 5696 5695 5695 5696 5696
5705 5703 5702 5701 5699 5698 5697 5695 5694 5692 5691 5690 5691 5691 5691 5692 5692 5692 5693 5694 5693 5694 5693 5692 5692 5691 5691 5691 5691 5691 5691 5691 5691 5691 5691 5691 5691 5690
5700 5697 5696 5695 5693 5691 5690 5688 5687 5687 5685 5684 5683 5684 5684 5685 5685 5685 5686 5685 5687 5687 5687 5687 5687 5687 5687 5686 5686 5686 5686 5686 5685 5685 5685 5685 5685 5685
5694 5692 5691 5689 5687 5685 5683 5681 5680 5678 5677 5676 5676 5676 5676 5677 5676 5676 5676 5677 5678 5681 5681 5681 5681 5681 5681 5681 5680 5681 5680 5680 5680 5680 5680 5680 5680 5680
5687 5686 5684 5683 5681 5679 5678 5675 5673 5671 5670 5669 5668 5668 5668 5668 5668 5669 5669 5670 5671 5673 5673 5674 5675 5676 5676 5675 5675 5675 5675 5674 5674 5674 5674 5674 5674 5674
5680 5678 5677 5675 5674 5672 5671 5668 5667 5665 5663 5661 5661 5660 5660 5661 5661 5661 5661 5661 5663 5666 5665 5667 5667 5668 5669 5670 5670 5670 5670 5669 5669 5669 5669 5668 5668 5669
5673 5670 5670 5668 5666 5664 5663 5662 5659 5658 5657 5655 5654 5654 5654 5655 5654 5655 5654 5654 5656 5658 5657 5660 5661 5661 5662 5663 5663 5663 5664 5664 5664 5664 5663 5663 5663 5663
5666 5664 5661 5659 5658 5656 5655 5654 5652 5651 5651 5649 5649 5648 5648 5648 5648 5648 5648 5648 5650 5650 5649 5651 5653 5654 5656 5656 5656 5657 5657 5658 5658 5658 5658 5658 5658 5658
5659 5657 5654 5652 5651 5648 5647 5645 5645 5644 5644 5643 5641 5641 5641 5641 5641 5640 5640 5640 5643 5645 5643 5643 5646 5646 5647 5648 5650 5650 5651 5651 5651 5651 5652 5652 5652 5651
5651 5649 5647 5646 5644 5641 5639 5638 5637 5636 5635 5635 5634 5634 5633 5633 5633 5632 5632 5632 5633 5636 5637 5635 5637 5637 5638 5641 5641 5641 5642 5643 5643 5644 5645 5645 5645 5645
5643 5642 5641 5639 5636 5634 5632 5631 5629 5628 5627 5626 5626 5626 5626 5625 5625 5625 5625 5625 5626 5628 5629 5627 5628 5627 5627 5630 5632 5633 5633 5634 5635 5636 5637 5638 5638 5639
5636 5635 5634 5631 5629 5627 5625 5623 5621 5619 5619 5617 5617 5617 5617 5617 5617 5618 5618 5618 5619 5620 5621 5620 5620 5620 5620 5621 5623 5625 5625 5626 5627 5629 5630 5631 5631 5632
5630 5628 5626 5624 5621 5620 5617 5615 5613 5611 5610 5609 5608 5608 5609 5609 5610 5610 5612 5612 5612 5613 5614 5614 5614 5614 5614 5615 5616 5617 5618 5619 5620 5621 5623 5624 5625 5626
5623 5621 5618 5616 5614 5612 5610 5608 5606 5603 5602 5601 5601 5601 5601 5602 5602 5603 5603 5604 5605 5607 5607 5607 5607 5607 5608 5609 5610 5611 5611 5612 5613 5614 5615 5617 5618 5619
5616 5613 5611 5609 5607 5605 5603 5600 5598 5596 5595 5594 5593 5594 5594 5594 5595 5595 5595 5596 5596 5598 5600 5600 5600 5601 5602 5603 5604 5606 5606 5606 5607 5608 5608 5611 5612 5613
5608 5606 5604 5601 5599 5598 5596 5594 5592 5590 5589 5587 5587 5586 5586 5586 5587 5587 5587 5588 5589 5590 5591 5592 5592 5594 5594 5596 5597 5599 5600 5600 5601 5602 5603 5605 5607 5608
5601 5599 5596 5594 5592 5590 5589 5587 5586 5584 5582 5581 5580 5580 5579 5579 5579 5580 5581 5581 5582 5582 5583 5584 5585 5586 5587 5590 5592 5592 5593 5594 5595 5596 5597 5599 5601 5603
5594 5592 5590 5588 5586 5584 5582 5580 5579 5578 5576 5574 5574 5573 5572 5572 5572 5573 5574 5574 5575 5575 5576 5577 5578 5579 5579 5582 5583 5585 5585 5587 5589 5590 5591 5592 5593 5595
5587 5585 5583 5581 5579 5577 5576 5574 5572 5571 5569 5568 5567 5566 5566 5565 5566 5566 5567 5566 5567 5569 5570 5571 5572 5571 5572 5573 5575 5578 5579 5580 5582 5584 5585 5586 5587 5589
5581 5578 5577 5575 5573 5571 5569 5567 5565 5564 5563 5561 5560 5560 5559 5559 5559 5559 5560 5561 5561 5563 5564 5565 5565 5566 5566 5568 5570 5571 5573 5574 5575 5576 5578 5580 5581 5584
5574 5572 5570 5569 5567 5565 5563 5561 5559 5558 5556 5555 5554 5553 5553 5553 5553 5554 5554 5554 5554 5556 5557 5558 5559 5559 5560 5561 5563 5564 5566 5567 5569 5571 5571 5572 5575 5577